    2005 EW318
    Eccentricity assumed
    Epoch 2006 Mar. 6.0 TT = JDT 2453800.5                  MPC
    M 247.79260              (2000.0)            P               Q
    n   0.00324383     Peri.  149.42205     +0.13946480     +0.99012096
    a  45.1957298      Node   128.59087     -0.91222653     +0.13415924
    e   0.1070311      Incl.    1.06249     -0.38521725     +0.04076505
    P 304              H    5.9           G   0.15
    Residuals in seconds of arc
    K0538  675  0.6+  0.4-    K053A  675  0.7+  0.1-    K0632  695  0.6-  0.0
    K0538  675  0.3+  0.2-    K0568  304  1.2-  0.7+    K064R  807  0.8+  0.1-
    K0539  675  0.1+  0.2-    K0569  304  1.0-  0.6+    K064S  807  0.7+  0.4-
    K0539  675  0.2+  0.2-    K0632  695  0.6-  0.3+    K064S  807  0.8+  0.3-
    K053A  675  0.1+  0.0     K0632  695  0.8-  0.3+
    
    2005 GX186
    Eccentricity assumed
    Epoch 2006 Mar. 6.0 TT = JDT 2453800.5                  MPC
    M 293.34198              (2000.0)            P               Q
    n   0.00327889     Peri.   92.87103     -0.31232672     +0.94967874
    a  44.8729961      Node   158.88240     -0.89564344     -0.28605162
    e   0.1061502      Incl.    3.77379     -0.31666203     -0.12761172
    P 301              H    6.7           G   0.15
    Residuals in seconds of arc
    K054A  695  0.1+  0.0     K0632  695  0.1+  0.1-    K064Q  807  0.0   0.1-
    K054B  695  0.1-  0.0     K0632  695  0.0   0.1+    K064Q  807  0.1-  0.1-
    K054B  695  0.0   0.0     K0632  695  0.0   0.1+    K064S  807  0.0   0.0
    
    2005 GA187
    Epoch 2006 Mar. 6.0 TT = JDT 2453800.5                  MPC
    M 289.00976              (2000.0)            P               Q
    n   0.00394534     Peri.  281.82103     +0.61249241     +0.77628429
    a  39.6655434      Node    27.71235     -0.54078538     +0.54908701
    e   0.2199220      Incl.   18.70273     -0.57654507     +0.30965490
    P 250              H    7.5           G   0.15           U   5
    Residuals in seconds of arc
    K054A  695  0.1-  0.6-    K0562  568  0.1+  0.1-    K0589  807  0.0   0.1+
    K054B  695  0.0   0.0     K0562  568  0.1-  0.0     K0589  807  0.1-  0.2+
    K054B  695  0.2+  0.4+    K0567  304  0.2+  0.3+    K064Q  807  0.1+  0.2-
    K0559  807  0.1+  0.1+    K0567  304  0.1+  0.0     K064Q  807  0.1+  0.1+
    K055A  807  0.1-  0.1+    K0579  304  0.0   0.1-    K064R  807  0.3-  0.0
    K055A  807  0.4-  0.0     K0579  304  0.0   0.1-
    K055A  807  0.1+  0.0     K0587  807  0.2+  0.0
    
    2005 JZ174
    Epoch 2006 Mar. 6.0 TT = JDT 2453800.5                  MPC
    M 282.82862              (2000.0)            P               Q
    n   0.00350249     Peri.  238.57392     +0.46214779     +0.88145610
    a  42.9422517      Node    59.25651     -0.77038944     +0.45336636
    e   0.0822706      Incl.    6.49600     -0.43922605     +0.13226522
    P 281              H    6.3           G   0.15           U   5
    Residuals in seconds of arc
    K0559  807  0.0   0.5-    K0569  304  0.3+  0.0     K064M  304  0.3-  0.3+
    K055A  807  0.2-  0.0     K0579  304  1.0-  0.3-    K064M  304  0.2-  0.3-
    K055A  807  0.2-  0.2+    K0579  304  0.2-  0.2-    K064Q  807  0.2+  0.1+
    K0567  304  0.3-  0.3-    K0587  807  0.2+  0.1+    K064S  807  0.2+  0.1-
    K0567  304  1.1+  0.1+    K0589  807  0.2+  0.2+
    K0569  304  0.1-  0.6+    K0589  807  0.1+  0.2+
    
    2005 JA175
    Eccentricity assumed
    Epoch 2006 Mar. 6.0 TT = JDT 2453800.5                  MPC
    M 244.37322              (2000.0)            P               Q
    n   0.00347491     Peri.  125.33779     +0.96841135     +0.17862567
    a  43.1691747      Node   225.10254     -0.21588802     +0.94977710
    e   0.1470890      Incl.   14.21842     +0.12478714     +0.25693645
    P 284              H    5.7           G   0.15
    Residuals in seconds of arc
    K055A  807  0.6+  0.3-    K0567  304  0.6-  0.3+    K064M  304  0.5-  0.4+
    K055B  807  0.5+  0.1-    K0579  304  1.1-  0.1+    K064M  304  0.7-  0.0
    K055B  807  0.5+  0.2-    K0579  304  0.6-  0.1+    K064Q  807  0.3+  0.0
    K0562  568  0.5-  0.1+    K0588  807  1.0+  0.0     K064Q  807  0.3+  0.1+
    K0562  568  0.5-  0.1+    K0589  807  0.9+  0.0     K064S  807  0.3+  0.5-
    K0567  304  0.6-  0.1+    K058A  807  0.7+  0.2-
    
    2005 JH177
    Epoch 2006 Mar. 6.0 TT = JDT 2453800.5                  MPC
    M  39.28113              (2000.0)            P               Q
    n   0.00323473     Peri.   40.97207     -0.92927449     -0.36589817
    a  45.2804473      Node   117.49772     +0.32226308     -0.87009777
    e   0.1365248      Incl.    3.27470     +0.18054202     -0.33022478
    P 305              H    6.9           G   0.15           U   6
    Residuals in seconds of arc
    K055B  807  0.1-  0.0     K0569  304  0.3-  0.0     K064R  807  0.0   0.0
    K055B  807  0.1+  0.2+    K064M  304  0.1+  0.2-    K0651  695  0.2+  0.3+
    K0561  568  0.2+  0.0     K064M  304  0.0   0.3+    K0651  695  0.0   0.2+
    K0561  568  0.0   0.0     K064Q  807  0.3-  0.1-    K0652  695  0.0   0.1-
    K0562  568  0.0   0.0     K064Q  807  0.1-  0.3-
    K0569  304  0.1+  0.2-    K064R  807  0.1+  0.0
    
    2005 JP179
    Epoch 2006 Mar. 6.0 TT = JDT 2453800.5                  MPC
    M  48.36464              (2000.0)            P               Q
    n   0.00346457     Peri.   21.61043     -0.93622513     -0.35054360
    a  43.2550553      Node   137.84350     +0.31681305     -0.87221493
    e   0.0381874      Incl.    2.09452     +0.15202634     -0.34111626
    P 284              H    5.9           G   0.15           U   6
    Residuals in seconds of arc
    K055B  807  0.1+  0.4+    K0571  688  0.7-  0.5-    K064Q  807  0.0   0.0
    K055B  807  0.2+  0.4+    K0587  807  0.1-  0.0     K064Q  807  0.2-  0.0
    K0569  304  0.1+  0.1+    K0588  807  0.0   0.0     K064R  807  0.1+  0.0
    K0569  304  0.0   0.0     K064M  304  0.1+  0.2+    K064R  807  0.0   0.1+
    K056U  688  0.5+  0.5-    K064M  304  0.0   0.1-
    
    Ephemerides:
    1999 RU214               a,e,i = 55.72, 0.34, 4                  q = 36.580
    Date    TT    R. A. (2000) Decl.     Delta      r     Elong.  Phase     V
    2006 06 04    22 08.06   -12 20.4   46.963   47.211   103.5     1.2    24.2
    2006 06 14    22 07.94   -12 21.4   46.811   47.219   113.1     1.1    24.2
    2006 06 24    22 07.70   -12 23.0   46.670   47.228   122.8     1.0    24.2
    2006 07 04    22 07.34   -12 25.3   46.545   47.236   132.4     0.9    24.2
    2006 07 14    22 06.88   -12 28.1   46.439   47.244   142.0     0.8    24.1
    2006 07 24    22 06.33   -12 31.3   46.356   47.253   151.7     0.6    24.1
    2006 08 03    22 05.72   -12 34.9   46.298   47.261   161.4     0.4    24.1
    2006 08 13    22 05.06   -12 38.7   46.268   47.270   171.2     0.2    24.1
    2006 08 23    22 04.38   -12 42.6   46.267   47.278   178.7     0.0    24.0
    2006 09 02    22 03.70   -12 46.4   46.295   47.286   169.1     0.2    24.1
    2006 09 12    22 03.05   -12 50.0   46.352   47.295   159.3     0.4    24.1
    2006 09 22    22 02.44   -12 53.3   46.436   47.303   149.4     0.6    24.1
    2006 10 02    22 01.91   -12 56.2   46.547   47.311   139.4     0.8    24.1
    2006 10 12    22 01.47   -12 58.6   46.679   47.320   129.5     0.9    24.2
    2006 10 22    22 01.14   -13 00.4   46.831   47.328   119.5     1.0    24.2
    2006 11 01    22 00.94   -13 01.4   46.997   47.337   109.4     1.1    24.2
    2006 11 11    22 00.87   -13 01.8   47.173   47.345    99.4     1.2    24.2
    2006 11 21    22 00.93   -13 01.4   47.355   47.353    89.3     1.2    24.2
    2006 12 01    22 01.14   -13 00.2   47.536   47.362    79.3     1.2    24.2
    2006 12 11    22 01.48   -12 58.3   47.711   47.370    69.2     1.1    24.2
    2006 12 21    22 01.96   -12 55.8   47.875   47.379    59.2     1.0    24.2
    2006 12 31    22 02.54   -12 52.6   48.025   47.387    49.1     0.9    24.2
    2007 01 10    22 03.24   -12 48.8   48.154   47.395    39.1     0.8    24.2
    
    2003 FM127               a,e,i = 43.95, 0.05, 4                  q = 41.759
    Date    TT    R. A. (2000) Decl.     Delta      r     Elong.  Phase     V
    2006 06 04    14 14.48   -12 12.8   42.602   43.409   142.3     0.8    23.5
    2006 06 14    14 13.96   -12 10.5   42.716   43.410   132.6     1.0    23.5
    2006 06 24    14 13.55   -12 08.8   42.850   43.412   123.0     1.1    23.5
    2006 07 04    14 13.26   -12 07.7   43.000   43.413   113.4     1.2    23.5
    2006 07 14    14 13.11   -12 07.4   43.161   43.414   103.8     1.3    23.5
    2006 07 24    14 13.10   -12 07.8   43.328   43.416    94.3     1.3    23.6
    2006 08 03    14 13.24   -12 08.9   43.498   43.417    84.7     1.3    23.6
    2006 08 13    14 13.52   -12 10.8   43.665   43.418    75.2     1.3    23.6
    2006 08 23    14 13.94   -12 13.4   43.825   43.419    65.7     1.2    23.6
    2006 09 02    14 14.49   -12 16.6   43.973   43.421    56.2     1.1    23.6
    2006 09 12    14 15.16   -12 20.5   44.106   43.422    46.7     1.0    23.6
    2006 09 22    14 15.93   -12 24.7   44.219   43.423    37.2     0.8    23.6
    
